Home > Time Zones > World Clock > Weather > Norway > Oslo > Past weeks

Flag for Norway Weather past 2 weeks in Oslo, Norway

Now
63 °F

Mild.


Feels Like: 63 °F
Forecast: 67 / 86 °F
Wind: 1 mph from Northeast

Location: Oslo-Blindern

Current Time: Jul 23, 2014 at 6:48:19 AM

Latest Report: Jul 23, 2014 at 6:00 AM


Visibility: N/A

Pressure: 30.31 "Hg

Humidity: 86%

Dew point: 58 °F

Location of OsloLocation

Historic Weather in Oslo — Graph

°F

Oslo temperature yesterday

Maximum temperature yesterday: 88 °F (at 4:00 PM)
Minimum temperature yesterday: 64 °F (at 6:00 AM)
Average temperature yesterday: 76 °F

Past Weeks' High & Low Weather Summary

 TemperatureHumidityPressure
High88 °F (Jul 22, 4:00 PM)97% (Jul 16, 2:00 AM)30.30 "Hg (Jul 16, 2:00 AM)
Low52 °F (Jul 18, 5:00 AM)28% (Jul 12, 8:00 PM)29.66 "Hg (Jul 13, 10:00 PM)
Average70 °F64%30.01 "Hg
* Reported Jul 8 5:00 AM — Jul 23 5:00 AM, Oslo, Weather by CustomWeather, © 2014

Note: Actual official high and low records may vary slightly from our data, if they occured in-between our weather recording intervals... More about our weather records

Advertising

Oslo weather history for previous 24 hours

 ConditionsComfort  
Time TempWeatherWind HumidityBarometerVisibility
5:00 AM
Jul 23
62 °FPassing clouds.1 mph85%30.30 "Hg37 mi
4:00 AM63 °FMild.1 mph84%30.29 "HgN/A
3:00 AM64 °FMild.2 mph83%30.29 "HgN/A
2:00 AM64 °FClear.2 mph84%30.28 "Hg43 mi
6:00 PM
Jul 22
85 °FPleasantly warm.2 mph37%30.21 "HgN/A
5:00 PM84 °FScattered clouds.3 mph39%30.21 "Hg43 mi
4:00 PM88 °FHot.1 mph36%30.21 "HgN/A
3:00 PM85 °FPleasantly warm.2 mph39%30.22 "HgN/A
2:00 PM87 °FScattered clouds.2 mph38%30.23 "Hg47 mi
1:00 PM86 °FPleasantly warm.2 mph35%30.24 "HgN/A
12:00 PM85 °FPleasantly warm.2 mph37%30.24 "HgN/A
11:00 AM82 °FPassing clouds.2 mph44%30.24 "Hg47 mi
10:00 AM78 °FWarm.1 mph48%30.24 "HgN/A
9:00 AM76 °FMild.2 mph54%30.24 "HgN/A
8:00 AM71 °FPassing clouds.1 mph61%30.24 "Hg47 mi
7:00 AM67 °FMild.2 mph70%30.23 "HgN/A
6:00 AM64 °FMild.2 mph75%30.22 "HgN/A
Weather by CustomWeather, © 2014

See weather overviewHow to use our weather pages